Location: *
(48.8489°N, 2.3218°E)
Time: 13:12:05
(UTC+00:00)

Cosmos 1975 - Pass Details

Date: 23 August 2019
Orbit: 542 x 562 km, 82.5° (Epoch: 17 September)

Event Time Altitude Azimuth Distance (km) Brightness Sun altitude
Exits shadow 22:22:52 40° 294° (WNW) 818 3.9 -26.6°
Drops below altitude 10° 22:26:28 10° 356° (N) 1,826 6.3 -26.9°
Sets 22:28:44 0° 4° (N) 2,722 7.3 -27.0°
